EN

Hourly Weather Abadzekhskaya

Today, 12 June, Saturday

Time Temperature Precipitation Wind Pressure Humidity
00:00 +14°C° 0 mm 1 mps 711 mmHg 91%
01:00 +13°C° 0 mm 1 mps 711 mmHg 91%
02:00 +13°C° 0 mm 1 mps 711 mmHg 91%
03:00 +13°C° 0 mm 1 mps 711 mmHg 91%
04:00 +13°C° 0 mm 1 mps 711 mmHg 90%
05:00 +14°C° 0 mm 1 mps 711 mmHg 90%
06:00 +14°C° 0 mm 1 mps 711 mmHg 89%
07:00 +18°C° 0 mm 1 mps 711 mmHg 81%
08:00 +20°C° 0 mm 1 mps 712 mmHg 73%
09:00 +22°C° 0 mm 1 mps 712 mmHg 65%
10:00 +23°C° 0.2 mm 1 mps 712 mmHg 63%
11:00 +23°C° 0.2 mm 2 mps 712 mmHg 62%
12:00 +24°C° 0.2 mm 2 mps 711 mmHg 60%
13:00 +24°C° 0.8 mm 2 mps 712 mmHg 65%
14:00 +23°C° 0.8 mm 2 mps 712 mmHg 70%
15:00 +23°C° 0.8 mm 2 mps 712 mmHg 74%
16:00 +22°C° 0.9 mm 1 mps 711 mmHg 77%
17:00 +22°C° 0.9 mm 1 mps 711 mmHg 79%
18:00 +22°C° 0.9 mm 1 mps 711 mmHg 82%
19:00 +20°C° 0.4 mm 1 mps 711 mmHg 85%
20:00 +18°C° 0.4 mm 1 mps 711 mmHg 88%
21:00 +16°C° 0.4 mm 1 mps 711 mmHg 91%
22:00 +15°C° 0 mm 1 mps 711 mmHg 91%
23:00 +15°C° 0 mm 1 mps 711 mmHg 92%

Tomorrow, 13 June, Sunday

Time Temperature Precipitation Wind Pressure Humidity
00:00 +14°C° 0 mm 1 mps 711 mmHg 92%
01:00 +14°C° 0 mm 1 mps 711 mmHg 92%
02:00 +14°C° 0 mm 1 mps 711 mmHg 93%
03:00 +13°C° 0 mm 1 mps 711 mmHg 93%
04:00 +14°C° 0.2 mm 1 mps 711 mmHg 93%
05:00 +14°C° 0.2 mm 1 mps 711 mmHg 93%
06:00 +15°C° 0.2 mm 1 mps 711 mmHg 93%
07:00 +18°C° 0.1 mm 1 mps 711 mmHg 86%
08:00 +19°C° 0.1 mm 1 mps 711 mmHg 80%
09:00 +21°C° 0.1 mm 1 mps 711 mmHg 74%
10:00 +21°C° 0.9 mm 1 mps 711 mmHg 77%
11:00 +22°C° 0.9 mm 1 mps 711 mmHg 79%
12:00 +22°C° 0.9 mm 1 mps 711 mmHg 82%
13:00 +22°C° 1.5 mm 1 mps 711 mmHg 83%
14:00 +22°C° 1.5 mm 1 mps 711 mmHg 84%
15:00 +21°C° 1.5 mm 1 mps 711 mmHg 84%
16:00 +21°C° 1.2 mm 1 mps 711 mmHg 86%
17:00 +19°C° 1.2 mm 0 mps 711 mmHg 87%
18:00 +19°C° 1.2 mm 0 mps 711 mmHg 88%
19:00 +19°C° 0.5 mm 1 mps 711 mmHg 90%
20:00 +18°C° 0.5 mm 1 mps 711 mmHg 91%
21:00 +15°C° 0.5 mm 1 mps 711 mmHg 93%
22:00 +15°C° 0 mm 1 mps 711 mmHg 93%
23:00 +15°C° 0 mm 1 mps 711 mmHg 93%

Day after tomorrow, 14 June, Monday

Time Temperature Precipitation Wind Pressure Humidity
00:00 +14°C° 0 mm 1 mps 710 mmHg 94%
01:00 +14°C° 0 mm 1 mps 710 mmHg 94%
02:00 +13°C° 0 mm 1 mps 710 mmHg 94%
03:00 +13°C° 0 mm 1 mps 710 mmHg 94%
04:00 +14°C° 0 mm 1 mps 710 mmHg 94%
05:00 +14°C° 0 mm 1 mps 710 mmHg 93%
06:00 +15°C° 0 mm 1 mps 710 mmHg 93%
07:00 +18°C° 0 mm 1 mps 710 mmHg 84%
08:00 +20°C° 0 mm 1 mps 710 mmHg 74%
09:00 +23°C° 0 mm 2 mps 710 mmHg 65%
10:00 +24°C° 0 mm 2 mps 710 mmHg 61%
11:00 +25°C° 0 mm 2 mps 710 mmHg 56%
12:00 +26°C° 0 mm 3 mps 710 mmHg 52%
13:00 +26°C° 0.3 mm 3 mps 710 mmHg 57%
14:00 +25°C° 0.3 mm 2 mps 710 mmHg 63%
15:00 +25°C° 0.3 mm 2 mps 710 mmHg 69%
16:00 +24°C° 0.4 mm 2 mps 709 mmHg 73%
17:00 +24°C° 0.4 mm 2 mps 709 mmHg 77%
18:00 +23°C° 0.4 mm 2 mps 709 mmHg 81%
19:00 +21°C° 0 mm 2 mps 709 mmHg 85%
20:00 +19°C° 0 mm 2 mps 708 mmHg 90%
21:00 +18°C° 0 mm 2 mps 708 mmHg 94%
22:00 +18°C° 0.1 mm 2 mps 708 mmHg 93%
23:00 +17°C° 0.1 mm 2 mps 707 mmHg 92%

15 June, Tuesday

Time Temperature Precipitation Wind Pressure Humidity
00:00 +18°C° 0.1 mm 1 mps 707 mmHg 91%
01:00 +17°C° 0.1 mm 2 mps 707 mmHg 91%
02:00 +16°C° 0.1 mm 2 mps 707 mmHg 92%
03:00 +16°C° 0.1 mm 2 mps 706 mmHg 92%
04:00 +16°C° 0.4 mm 1 mps 706 mmHg 92%
05:00 +16°C° 0.4 mm 1 mps 706 mmHg 92%
06:00 +16°C° 0.4 mm 1 mps 706 mmHg 91%
07:00 +19°C° 0.1 mm 1 mps 707 mmHg 86%
08:00 +19°C° 0.1 mm 2 mps 707 mmHg 80%
09:00 +21°C° 0.1 mm 2 mps 708 mmHg 74%
10:00 +23°C° 0.2 mm 2 mps 708 mmHg 72%
11:00 +24°C° 0.2 mm 2 mps 708 mmHg 69%
12:00 +24°C° 0.2 mm 2 mps 708 mmHg 66%
13:00 +24°C° 0.9 mm 2 mps 708 mmHg 69%
14:00 +24°C° 0.9 mm 2 mps 708 mmHg 72%
15:00 +24°C° 0.9 mm 2 mps 708 mmHg 75%
16:00 +23°C° 0.5 mm 2 mps 708 mmHg 78%
17:00 +23°C° 0.5 mm 2 mps 708 mmHg 81%
18:00 +21°C° 0.5 mm 2 mps 709 mmHg 83%
19:00 +19°C° 1 mm 2 mps 709 mmHg 87%
20:00 +18°C° 1 mm 1 mps 709 mmHg 90%
21:00 +15°C° 1 mm 1 mps 709 mmHg 93%
22:00 +15°C° 0 mm 1 mps 709 mmHg 93%
23:00 +14°C° 0 mm 2 mps 709 mmHg 93%

16 June, Wednesday

Time Temperature Precipitation Wind Pressure Humidity
00:00 +13°C° 0 mm 2 mps 709 mmHg 93%
01:00 +13°C° 0 mm 2 mps 709 mmHg 93%
02:00 +12°C° 0 mm 2 mps 709 mmHg 93%
03:00 +12°C° 0 mm 2 mps 709 mmHg 92%
04:00 +13°C° 0 mm 1 mps 710 mmHg 92%
05:00 +13°C° 0 mm 1 mps 710 mmHg 91%
06:00 +14°C° 0 mm 1 mps 710 mmHg 90%
07:00 +16°C° 0 mm 1 mps 710 mmHg 82%
08:00 +19°C° 0 mm 1 mps 710 mmHg 73%
09:00 +21°C° 0 mm 1 mps 711 mmHg 65%
10:00 +22°C° 0.2 mm 1 mps 711 mmHg 65%
11:00 +21°C° 0.2 mm 2 mps 711 mmHg 66%
12:00 +21°C° 0.2 mm 2 mps 711 mmHg 67%
13:00 +21°C° 0.7 mm 2 mps 711 mmHg 69%
14:00 +21°C° 0.7 mm 2 mps 711 mmHg 71%
15:00 +21°C° 0.7 mm 2 mps 711 mmHg 73%
16:00 +22°C° 0.4 mm 1 mps 711 mmHg 74%
17:00 +21°C° 0.4 mm 1 mps 711 mmHg 76%
18:00 +21°C° 0.4 mm 1 mps 711 mmHg 78%
19:00 +19°C° 0.1 mm 1 mps 711 mmHg 82%
20:00 +16°C° 0.1 mm 0 mps 712 mmHg 86%
21:00 +14°C° 0.1 mm 0 mps 712 mmHg 90%
22:00 +15°C° 0 mm 1 mps 712 mmHg 91%
23:00 +14°C° 0 mm 1 mps 712 mmHg 92%

17 June, Thursday

Time Temperature Precipitation Wind Pressure Humidity
00:00 +14°C° 0 mm 1 mps 712 mmHg 93%
01:00 +13°C° 0 mm 1 mps 712 mmHg 93%
02:00 +13°C° 0 mm 2 mps 712 mmHg 92%
03:00 +12°C° 0 mm 2 mps 712 mmHg 92%
04:00 +13°C° 0 mm 2 mps 712 mmHg 89%
05:00 +13°C° 0 mm 1 mps 712 mmHg 87%
06:00 +14°C° 0 mm 1 mps 712 mmHg 84%
07:00 +16°C° 0 mm 1 mps 712 mmHg 75%
08:00 +20°C° 0 mm 1 mps 712 mmHg 66%
09:00 +22°C° 0 mm 1 mps 712 mmHg 57%
10:00 +24°C° 0 mm 1 mps 712 mmHg 54%
11:00 +25°C° 0 mm 2 mps 712 mmHg 50%
12:00 +26°C° 0 mm 2 mps 712 mmHg 47%
13:00 +26°C° 0 mm 2 mps 712 mmHg 49%
14:00 +26°C° 0 mm 3 mps 712 mmHg 51%
15:00 +26°C° 0 mm 3 mps 712 mmHg 53%
16:00 +25°C° 0.1 mm 3 mps 712 mmHg 60%
17:00 +24°C° 0.1 mm 3 mps 712 mmHg 67%
18:00 +23°C° 0.1 mm 2 mps 712 mmHg 73%
19:00 +21°C° 0 mm 2 mps 712 mmHg 79%
20:00 +19°C° 0 mm 2 mps 712 mmHg 86%
21:00 +17°C° 0 mm 2 mps 712 mmHg 92%
22:00 +18°C° 0 mm 1 mps 712 mmHg 93%
23:00 +16°C° 0 mm 1 mps 712 mmHg 94%
Show more